Regional Weather Roundup
Issued by NWS Jackson, KY

Home | Current Version | Previous Version | Graphics & Text | Print | Product List | Glossary On
Versions: 1 2 3 4 5 6 7 8 9 10 11 12 13 14 15 16 17 18 19 20 21 22 23 24 25 26 27 28 29 30 31 32 33 34 35 36 37 38 39 40 41 42 43 44 45 46 47 48 49 50
000
ASUS43 KJKL 211110
RWRJKL

EAST KENTUCKY HOURLY WEATHER ROUNDUP
NATIONAL WEATHER SERVICE JACKSON KY
700 AM EDT TUE APR 21 2015

NOTE: "FAIR" INDICATES FEW OR NO CLOUDS BELOW 12,000 FEET WITH
NO SIGNIFICANT WEATHER AND/OR OBSTRUCTIONS TO VISIBILITY.

* THESE REPORTS ARE NOT UNDER NWS QUALITY CONTROL AND MAY NOT
  REPORT WEATHER SUCH AS PRECIPITATION AND FOG.

KYZ079-080-083-085-087-088-110-112-115-119-120-211200
...EASTERN KENTUCKY...

CITY           SKY/WX    TMP DP  RH WIND       PRES   REMARKS
JACKSON        CLEAR     45  34  65 SW3       29.88R
LONDON         CLEAR     46  38  73 SW5       29.91R
SOMERSET*      CLEAR     43  43 100 CALM      29.93R
MONTICELLO*    CLEAR     42  42 100 CALM      29.95R
MIDDLESBORO*   PTCLDY    46  44  95 CALM      29.93R
HARLAN APT*      N/A     43  37  81 CALM      29.91R
HAZARD APT*    PTSUNNY   46  36  66 SW3       29.89R
BLACK MTN*       N/A     30  30 100 NW1         N/A
PIKEVILLE APT* PTCLDY    46  32  57 CALM      29.88R
BIG SANDY*     SUNNY     46  33  59 W3        29.88R
$$

KYZ035-036-041-042-044-050-067-078-099-211200
...CENTRAL KENTUCKY...

CITY           SKY/WX    TMP DP  RH WIND       PRES   REMARKS
MT STERLING*   CLEAR     43  36  75 SW7       29.88S
FLEMING/MASON* CLEAR     39  36  87 SW8       29.86R WCI  34
DANVILLE*      CLEAR     39  36  87 SW5       29.90R
RICHMOND*      MOCLDY    45  34  65 SW8       29.89R
LEXINGTON      CLEAR     41  35  79 S9        29.87R
FRANKFORT      CLEAR     40  34  79 SW8       29.85R WCI  34
$$

KYZ091>093-OHZ055-061-077-WVZ005-015-034-035-042-211200
...SOUTHERN OHIO/WEST VIRGINIA...

CITY           SKY/WX    TMP DP  RH WIND       PRES   REMARKS
COVINGTON      PTCLDY    41  33  73 S7        29.80S
COLUMBUS       CLEAR     42  36  79 S7        29.76S
DAYTON         PTCLDY    43  34  70 SW14      29.75S
WILMINGTON     CLEAR     41  34  76 SW12      29.78S
HUNTINGTON     CLEAR     44  35  70 S5        29.85R
CHARLESTON     PTCLDY    48  34  58 W8        29.85R
PINEVILLE*     PTCLDY    45  37  71 MISG      29.91R
BECKLEY        CLEAR     42  32  67 W8        29.85R
BLUEFIELD      PTCLDY    44  28  53 NW12      29.85R
$$

VAZ002-007-008-TNZ017-027-036-066-071-211200
...SOUTHWEST VIRGINIA/EAST TENNESSEE...

CITY           SKY/WX    TMP DP  RH WIND       PRES   REMARKS
WISE*            N/A     41  34  75 W5        29.90R
JONESVILLE*    CLOUDY    45  41  87 CALM      29.93R
ABINGDON*      PTCLDY    47  40  76 NW5       29.89R
BRISTOL        PTCLDY    47  43  86 W7        29.90R
KNOXVILLE      PTCLDY    47  42  83 CALM      29.93R
OAK RIDGE      CLEAR     46  43  89 CALM      29.95R
CROSSVILLE     CLEAR     40  37  89 CALM      29.94R
NASHVILLE      CLEAR     42  41  96 S5        29.95R
$$

...KEY TO REMARKS...
VSB - VISIBILITY IN MILES
WCI - WIND CHILL INDEX
HX  - HEAT INDEX

$$



USA.gov is the U.S. government's official web portal to all federal, state and local government web resources and services.